Date,TemperatureHighF,TemperatureAvgF,TemperatureLowF,DewpointHighF,DewpointAvgF,DewpointLowF,HumidityHigh,HumidityAvg,HumidityLow,PressureMaxIn,PressureMinIn,WindSpeedMaxMPH,WindSpeedAvgMPH,GustSpeedMaxMPH,PrecipitationSumIn
2013-5-1,83,74,68,-100,-100,-100,0,0,100,0.00,40.00,0,-999,0,0.00
2013-5-2,75,59,51,-100,-100,-100,0,0,100,0.00,40.00,0,-999,0,0.00
2013-5-3,68,57,49,-100,-100,-100,0,0,100,0.00,40.00,0,-999,0,0.00
2013-5-4,79,66,49,-100,-100,-100,0,0,100,0.00,40.00,0,-999,0,0.00
2013-5-5,79,66,54,-100,-100,-100,0,0,100,0.00,40.00,0,-999,0,0.00
2013-5-6,74,64,56,-100,-100,-100,0,0,100,0.00,40.00,0,-999,0,0.00
2013-5-7,83,68,57,-100,-100,-100,0,0,100,0.00,40.00,0,-999,0,0.00
2013-5-8,82,72,64,-100,-100,-100,0,0,100,0.00,40.00,0,-999,0,0.00
2013-5-9,79,73,65,-100,-100,-100,0,0,100,0.00,40.00,0,-999,0,0.00
2013-5-10,80,72,63,-100,-100,-100,0,0,100,0.00,40.00,0,-999,0,0.00
2013-5-11,80,73,65,-100,-100,-100,0,0,100,0.00,40.00,0,-999,0,0.00
2013-5-12,78,70,63,-100,-100,-100,0,0,100,0.00,40.00,0,-999,0,0.00
2013-5-13,82,71,58,-100,-100,-100,0,0,100,0.00,40.00,0,-999,0,0.00
2013-5-14,84,72,62,-100,-100,-100,0,0,100,0.00,40.00,0,-999,0,0.00
2013-5-15,85,75,70,-100,-100,-100,0,0,100,0.00,40.00,0,-999,0,0.00
2013-5-16,93,76,70,-100,-100,-100,0,0,100,0.00,40.00,0,-999,0,0.00
2013-5-17,94,82,73,-100,-100,-100,0,0,100,0.00,40.00,0,-999,0,0.00
2013-5-18,91,80,71,-100,-100,-100,0,0,100,0.00,40.00,0,-999,0,0.00
2013-5-19,90,79,72,-100,-100,-100,0,0,100,0.00,40.00,0,-999,0,0.00
2013-5-20,91,78,71,-100,-100,-100,0,0,100,0.00,40.00,0,-999,0,0.00
2013-5-21,88,80,72,-100,-100,-100,0,0,100,0.00,40.00,0,-999,0,0.00
2013-5-22,86,76,66,-100,-100,-100,0,0,100,0.00,40.00,0,-999,0,0.00
2013-5-23,90,79,73,-100,-100,-100,0,0,100,0.00,40.00,0,-999,0,0.00
2013-5-24,77,73,68,-100,-100,-100,0,0,100,0.00,40.00,0,-999,0,0.00
2013-5-25,78,72,69,-100,-100,-100,0,0,100,0.00,40.00,0,-999,0,0.00
2013-5-26,82,76,70,-100,-100,-100,0,0,100,0.00,40.00,0,-999,0,0.00
2013-5-27,86,76,71,-100,-100,-100,0,0,100,0.00,40.00,0,-999,0,0.00
2013-5-28,87,78,73,-100,-100,-100,0,0,100,0.00,40.00,0,-999,0,0.00
2013-5-29,82,76,73,-100,-100,-100,0,0,100,0.00,40.00,0,-999,0,0.00
2013-5-30,86,79,74,-100,-100,-100,0,0,100,0.00,40.00,0,-999,0,0.00
2013-5-31,89,78,73,-100,-100,-100,0,0,100,0.00,40.00,0,-999,0,0.00